SCP
0 0 0 0 0 0 0 0 0 0 0 0 0 0 0 0 0 0 0 0 0 0 0 0 0 0 0 0 0 0 0 0 0 0 0 0 0 0 0 0 0 0 0
0 0 0 0 0 0 0 0 0 0 0 0 0 0 0 0 0 0 0 0 0 0 0 0 0 0 0 0 0 0 0 0 0 0 0 0 0 0 0 0 0 0 0
0 0 0 0 0 0 0 0 0 0 0 0 0 0 0 0 0 0 0 0 0 0 0 0 0 0 0 0 0 0 0 0 0 0 0 0 0 0 0 0 0 0 0
0 0 0 0 0 0 0 0 0 0 0 0 0 0 0 0 0 0 0 0 0 0 0 0 0 0 0 0 0 0 0 0 0 0 0 0 0 0 0 0 0 0 0
0 0 0 0 0 0 0 0 0 0 0 0 0 0 0 0 0 0 0 0 0 0 0 0 0 0 0 0 0 0 0 0 0 0 0 0 0 0 0 0 0 0 0
0 0 0 0 0 0 0 0 0 0 0 0 0 0 0 0 0 0 0 0 0 0 0 0 0 0 0 0 0 0 0 0 0 0 0 0 0 0 0 0 0 0 0
0 0 0 0 0 0 0 0 0 0 0 0 0 0 0 0 0 0 0 0 0 0 0 0 0 0 0 0 0 0 0 0 0 0 0 0 0 0 0 0 0 0 0
0 0 0 0 0 0 0 0 0 0 0 0 0 0 0 0 0 0 0 0 0 0 0 0 0 0 0 0 0 0 0 0 0 0 0 0 0 0 0 0 0 0 0
0 0 0 0 0 0 0 0 0 0 0 0 0 0 0 0 0 0 0 0 0 0 0 0 0 0 0 0 0 0 0 0 0 0 0 0 0 0 0 0 0 0 0
0 0 0 0 0 0 0 0 0 0 0 0 0 0 0 0 0 0 0 0 0 0 0 0 0 0 0 0 0 0 0 0 0 0 0 0 0 0 0 0 0 0 0
0 0 0 0 0 0 0 0 0 0 0 0 0 0 0 0 0 0 0 0 0 0 0 0 0 0 0 0 0 0 0 0 0 0 0 0 0 0 0 0 0 0 0
0 0 0 0 0 0 0 0 0 0 0 0 0 0 0 0 0 0 0 0 0 0 0 0 0 0 0 0 0 0 0 0 0 0 0 0 0 0 0 0 0 0 0
0 0 0 0 0 0 0 0 0 0 0 0 0 0 0 0 0 0 0 0 0 0 0 0 0 0 0 0 0 0 0 0 0 0 0 0 0 0 0 0 0 0 0
0 0 0 0 0 0 0 0 0 0 0 0 0 0 0 0 0 0 0 0 0 0 0 0 0 0 0 0 0 0 0 0 0 0 0 0 0 0 0 0 0 0 0
0 0 0 0 0 0 0 0 0 0 0 0 0 0 0 0 0 0 0 0 0 0 0 0 0 0 0 0 0 0 0 0 0 0 0 0 0 0 0 0 0 0 0
0 0 0 0 0 0 0 0 0 0 0 0 0 0 0 0 0 0 0 0 0 0 0 0 0 0 0 0 0 0 0 0 0 0 0 0 0 0 0 0 0 0 0
0 0 0 0 0 0 0 0 0 0 0 0 0 0 0 0 0 0 0 0 0 0 0 0 0 0 0 0 0 0 0 0 0 0 0 0 0 0 0 0 0 0 0
0 0 0 0 0 0 0 0 0 0 0 0 0 0 0 0 0 0 0 0 0 0 0 0 0 0 0 0 0 0 0 0 0 0 0 0 0 0 0 0 0 0 0
0 0 0 0 0 0 0 0 0 0 0 0 0 0 0 0 0 0 0 0 0 0 0 0 0 0 0 0 0 0 0 0 0 0 0 0 0 0 0 0 0 0 0
0 0 0 0 0 0 0 0 0 0 0 0 0 0 0 0 0 0 0 0 0 0 0 0 0 0 0 0 0 0 0 0 0 0 0 0 0 0 0 0 0 0 0
0 0 0 0 0 0 0 0 0 0 0 0 0 0 0 0 0 0 0 0 0 0 0 0 0 0 0 0 0 0 0 0 0 0 0 0 0 0 0 0 0 0 0
0 0 0 0 0 0 0 0 0 0 0 0 0 0 0 0 0 0 0 0 0 0 0 0 0 0 0 0 0 0 0 0 0 0 0 0 0 0 0 0 0 0 0
0 0 0 0 0 0 0 0 0 0 0 0 0 0 0 0 0 0 0 0 0 0 0 0 0 0 0 0 0 0 0 0 0 0 0 0 0 0 0 0 0 0 0
0 0 0 0 0 0 0 0 0 0 0 0 0 0 0 0 0 0 0 0 0 0 0 0 0 0 0 0 0 0 0 0 0 0 0 0 0 0 0 0 0 0 0
0 0 0 0 0 0 0 0 0 0 0 0 0 0 0 0 0 0 0 0 0 0 0 0 0 0 0 0 0 0 0 0 0 0 0 0 0 0 0 0 0 0 0
0 0 0 0 0 0 0 0 0 0 0 0 0 0 0 0 0 0 0 0 0 0 0 0 0 0 0 0 0 0 0 0 0 0 0 0 0 0 0 0 0 0 0
Wind_Speed_500mb
43 48 51 47 62 63 65 67 68 76 77 74 69 70 67 62 58 55 50 49 48 45 45 43 41 40 38 33 32 33 30 25 22 21 19 22 23 22 26 28 26 23 21
58 56 61 58 60 63 69 72 75 72 78 84 81 77 71 66 61 57 56 55 53 51 51 50 48 46 42 38 37 40 36 30 30 30 25 21 25 31 32 33 30 29 27
57 54 61 67 67 70 70 72 77 77 75 81 84 84 77 73 71 67 64 63 60 57 57 54 52 51 48 45 39 38 37 35 35 37 35 20 21 31 40 40 39 35 34
79 79 76 72 81 80 68 69 73 80 78 79 88 93 92 87 80 74 66 66 65 63 61 59 56 55 54 52 45 40 40 43 44 42 47 46 32 23 20 42 47 45 41
94 96 91 85 88 83 75 70 71 79 81 82 85 92 97 93 86 81 77 72 71 70 67 65 62 61 61 59 55 53 54 53 51 56 54 52 48 48 44 35 47 54 52
82 85 78 81 88 90 86 78 76 75 80 82 85 91 95 96 95 92 89 82 78 78 76 71 69 67 65 67 63 60 63 62 59 58 64 60 57 56 60 57 52 54 54
62 63 68 75 84 90 92 88 84 78 76 81 83 88 92 92 94 95 93 91 86 85 84 80 76 74 70 70 68 67 68 69 68 66 66 66 61 62 59 61 59 58 61
38 43 48 59 74 90 95 96 94 83 79 77 80 81 87 91 91 94 94 93 93 89 86 85 80 77 75 73 73 71 71 71 71 70 69 68 63 63 65 64 66 62 62
49 44 43 35 53 65 82 95 97 87 85 75 73 77 81 88 92 93 96 97 95 93 91 90 85 81 79 77 76 78 77 74 71 69 70 69 59 59 58 67 67 65 63
30 32 34 39 41 48 55 72 89 88 79 73 73 77 79 83 86 92 95 95 92 91 91 91 87 82 81 80 80 83 86 85 84 84 83 83 69 66 67 68 66 66 68
27 25 27 32 29 31 42 53 71 80 82 80 79 82 83 84 86 89 91 92 91 91 91 89 86 83 82 83 84 85 90 95 95 93 92 90 84 83 76 72 71 69 70
20 16 17 26 28 25 28 37 51 61 68 74 78 81 83 85 88 90 88 87 90 90 89 89 88 88 84 81 85 87 90 89 97 100 100 100 97 92 79 73 80 73 69
23 20 18 18 14 16 25 31 38 45 52 57 63 70 75 76 81 85 86 87 88 87 87 90 90 86 83 81 81 81 88 87 87 91 100 105 105 100 91 83 83 75 70
12 12 8 6 8 6 7 8 7 13 22 35 50 61 68 72 74 76 78 79 79 79 79 79 79 83 79 82 81 84 87 80 87 81 87 97 106 101 99 93 87 69 68
20 15 13 12 12 12 13 15 15 17 20 23 28 32 41 52 62 68 70 70 70 69 70 69 72 72 76 73 75 78 86 86 87 83 85 87 95 106 98 93 74 65 69
25 19 19 16 15 18 21 27 28 30 32 32 31 32 33 34 40 46 53 57 59 56 57 62 61 62 60 59 60 66 72 73 82 84 82 88 99 104 95 82 58 60 57
27 23 22 21 25 32 35 37 38 39 40 39 37 34 33 32 31 33 36 42 46 48 56 58 62 64 64 63 61 63 66 71 77 75 87 87 83 88 81 71 57 59 57
34 31 28 30 32 34 37 36 37 39 39 37 36 32 29 27 27 26 27 30 35 42 48 52 52 54 57 58 59 60 64 64 64 63 61 61 65 76 69 58 58 57 53
31 24 21 22 23 24 25 27 26 25 27 28 28 27 25 25 25 26 28 29 30 33 36 37 40 46 49 56 61 63 62 59 59 58 55 53 51 56 57 52 52 63 60
23 19 19 16 15 15 16 17 17 14 14 15 18 20 21 23 23 24 24 24 24 22 19 19 21 23 25 30 33 38 41 49 49 50 51 50 48 50 46 53 51 39 49
23 25 23 18 15 12 11 10 10 9 9 9 10 12 15 18 21 22 23 22 19 19 21 20 22 24 27 30 32 34 41 46 45 46 44 45 47 47 48 38 39 44 48
35 31 25 23 22 21 20 17 15 14 11 8 5 5 8 13 18 19 18 17 17 17 18 19 22 24 26 28 26 26 24 27 31 31 31 35 39 47 46 43 43 46 48
37 33 29 29 28 23 20 15 12 9 6 5 5 6 9 12 15 16 17 17 18 17 19 22 22 23 28 29 31 33 27 23 18 19 22 30 31 29 37 39 33 46 55
41 38 34 30 27 21 15 11 8 7 8 9 12 13 15 17 17 18 19 20 20 20 19 21 23 24 26 26 27 29 27 22 19 18 21 27 31 34 33 38 49 54 55
43 38 32 27 21 17 13 11 10 12 14 17 18 18 18 18 18 17 16 16 17 15 15 17 18 21 22 22 23 21 20 19 16 20 27 35 38 41 42 46 50 55 58
41 35 29 24 23 20 16 15 12 12 13 14 14 14 15 15 14 14 14 13 12 12 12 11 12 15 17 18 17 14 16 18 20 24 31 37 40 41 43 50 50 49 55
Wind_Direction_500mb
240 237 233 229 223 226 226 224 222 221 220 223 223 231 231 232 234 233 232 231 233 235 238 241 242 244 246 253 253 242 233 226 213 230 233 233 237 249 254 252 258 266 275
234 235 233 230 226 229 230 227 225 225 223 224 226 232 234 235 237 237 236 235 234 236 240 242 244 246 249 250 246 236 232 230 219 233 238 211 225 234 246 253 261 267 274
232 233 238 234 233 230 230 232 230 228 229 229 229 230 236 238 237 236 235 236 237 237 241 244 246 247 249 247 247 239 231 230 225 239 232 225 230 238 240 246 255 261 267
243 244 241 243 237 234 236 239 238 232 231 231 231 229 233 234 236 238 239 239 240 241 243 245 245 245 248 246 244 239 230 234 234 243 244 247 253 231 234 239 245 252 256
249 250 251 251 244 236 238 241 241 237 234 233 235 234 234 238 241 243 244 242 244 245 247 248 247 247 248 247 243 239 233 238 246 251 255 245 251 254 251 249 242 247 249
253 257 256 248 244 241 237 238 239 241 236 234 237 238 238 238 240 243 246 247 248 248 249 249 250 251 251 249 247 244 240 243 245 253 256 253 257 256 254 251 256 252 250
256 257 252 246 241 239 236 235 237 240 242 239 239 241 243 244 245 247 249 251 250 250 252 252 252 252 252 250 250 247 245 245 247 251 254 255 263 268 268 266 255 248 248
247 255 254 249 245 242 242 238 235 238 242 244 244 244 246 247 250 251 252 253 255 257 258 259 258 258 257 254 252 250 248 247 250 254 255 256 269 272 269 265 263 245 246
254 253 246 249 247 244 244 241 235 237 242 247 251 252 251 249 250 253 254 255 258 260 261 261 260 260 260 257 253 250 248 246 244 243 250 255 257 259 265 262 259 255 238
231 234 237 239 247 245 246 245 237 239 247 253 254 255 256 256 257 257 257 258 261 262 263 263 264 263 261 259 255 253 250 249 248 247 245 250 251 252 258 255 255 253 245
209 214 221 225 230 235 234 238 237 237 242 248 253 254 257 260 260 259 261 261 263 263 264 266 266 264 262 260 257 257 255 253 252 251 250 250 250 252 252 250 249 249 239
179 179 203 222 224 222 224 227 232 238 244 249 252 255 258 261 264 265 266 266 266 268 268 268 268 269 268 266 262 260 260 261 259 256 253 251 249 250 249 251 252 247 240
141 134 121 109 126 194 222 232 237 243 245 246 250 251 254 257 261 265 268 269 268 268 270 269 269 270 270 267 266 266 268 264 268 265 262 256 251 249 246 248 244 241 235
172 167 172 172 160 146 157 168 199 230 242 246 250 252 254 255 256 258 260 264 265 266 267 269 271 270 271 271 271 270 267 268 269 263 272 264 256 252 249 246 239 236 232
202 216 224 219 225 239 255 262 268 268 261 260 259 256 252 250 252 254 256 256 255 258 262 267 267 268 270 271 271 276 273 264 266 270 271 274 256 266 255 245 242 229 231
218 216 213 218 241 258 265 265 263 261 265 266 262 256 254 255 254 253 252 252 253 255 256 255 261 263 266 273 275 276 279 280 272 273 274 280 264 253 247 244 228 241 238
217 202 204 236 263 270 271 268 265 261 262 263 261 259 255 249 250 252 251 248 246 245 248 254 257 260 264 266 265 268 269 272 272 272 277 272 268 256 249 243 228 223 228
205 212 234 247 253 263 268 266 262 260 259 258 255 254 255 254 253 254 256 256 255 254 255 255 255 255 256 260 263 265 266 271 273 273 282 279 272 259 242 235 227 223 232
214 219 218 227 236 245 251 257 260 258 254 252 253 253 250 246 246 248 250 257 262 264 264 264 263 261 259 257 258 262 268 274 280 280 277 277 265 250 240 227 216 231 234
217 243 239 240 241 247 245 242 241 242 245 247 248 249 251 254 256 260 265 265 266 272 277 286 290 289 285 279 279 273 278 273 276 281 280 270 256 240 223 222 227 225 232
222 215 215 221 225 211 186 182 186 190 196 203 212 222 234 244 252 257 261 266 270 274 274 267 271 273 274 277 277 288 278 268 271 276 272 265 257 241 232 215 221 232 230
205 205 204 196 183 167 151 144 139 134 135 137 158 213 247 259 266 268 271 274 275 280 293 292 280 278 281 283 282 287 294 288 287 287 274 257 243 235 219 208 223 229 227
194 189 187 175 163 155 147 138 127 111 90 57 14 336 318 304 297 293 289 284 284 283 288 292 296 296 293 299 302 300 308 301 284 275 255 242 232 223 233 238 240 243 230
177 171 168 162 154 143 131 118 104 76 40 11 360 348 338 330 325 319 313 308 299 288 288 295 300 299 298 306 311 314 318 319 313 287 253 236 232 227 228 238 245 240 235
161 160 159 152 139 134 135 119 93 56 33 15 8 2 356 353 348 340 332 329 320 307 296 292 295 296 300 302 303 304 301 301 288 267 248 237 236 239 242 244 243 237 232
153 154 148 144 146 138 125 100 77 57 43 32 26 19 15 13 11 3 351 344 335 330 322 297 279 280 277 275 278 276 271 270 280 261 263 260 252 248 253 258 250 245 241
Wind_Speed_850mb
43 48 51 47 62 63 65 67 68 76 77 74 69 70 67 62 58 55 50 49 48 45 45 43 41 40 38 33 32 33 30 25 22 21 19 22 23 22 26 28 26 23 21
58 56 61 58 60 63 69 72 75 72 78 84 81 77 71 66 61 57 56 55 53 51 51 50 48 46 42 38 37 40 36 30 30 30 25 21 25 31 32 33 30 29 27
57 54 61 67 67 70 70 72 77 77 75 81 84 84 77 73 71 67 64 63 60 57 57 54 52 51 48 45 39 38 37 35 35 37 35 20 21 31 40 40 39 35 34
79 79 76 72 81 80 68 69 73 80 78 79 88 93 92 87 80 74 66 66 65 63 61 59 56 55 54 52 45 40 40 43 44 42 47 46 32 23 20 42 47 45 41
94 96 91 85 88 83 75 70 71 79 81 82 85 92 97 93 86 81 77 72 71 70 67 65 62 61 61 59 55 53 54 53 51 56 54 52 48 48 44 35 47 54 52
82 85 78 81 88 90 86 78 76 75 80 82 85 91 95 96 95 92 89 82 78 78 76 71 69 67 65 67 63 60 63 62 59 58 64 60 57 56 60 57 52 54 54
62 63 68 75 84 90 92 88 84 78 76 81 83 88 92 92 94 95 93 91 86 85 84 80 76 74 70 70 68 67 68 69 68 66 66 66 61 62 59 61 59 58 61
38 43 48 59 74 90 95 96 94 83 79 77 80 81 87 91 91 94 94 93 93 89 86 85 80 77 75 73 73 71 71 71 71 70 69 68 63 63 65 64 66 62 62
49 44 43 35 53 65 82 95 97 87 85 75 73 77 81 88 92 93 96 97 95 93 91 90 85 81 79 77 76 78 77 74 71 69 70 69 59 59 58 67 67 65 63
30 32 34 39 41 48 55 72 89 88 79 73 73 77 79 83 86 92 95 95 92 91 91 91 87 82 81 80 80 83 86 85 84 84 83 83 69 66 67 68 66 66 68
27 25 27 32 29 31 42 53 71 80 82 80 79 82 83 84 86 89 91 92 91 91 91 89 86 83 82 83 84 85 90 95 95 93 92 90 84 83 76 72 71 69 70
20 16 17 26 28 25 28 37 51 61 68 74 78 81 83 85 88 90 88 87 90 90 89 89 88 88 84 81 85 87 90 89 97 100 100 100 97 92 79 73 80 73 69
23 20 18 18 14 16 25 31 38 45 52 57 63 70 75 76 81 85 86 87 88 87 87 90 90 86 83 81 81 81 88 87 87 91 100 105 105 100 91 83 83 75 70
12 12 8 6 8 6 7 8 7 13 22 35 50 61 68 72 74 76 78 79 79 79 79 79 79 83 79 82 81 84 87 80 87 81 87 97 106 101 99 93 87 69 68
20 15 13 12 12 12 13 15 15 17 20 23 28 32 41 52 62 68 70 70 70 69 70 69 72 72 76 73 75 78 86 86 87 83 85 87 95 106 98 93 74 65 69
25 19 19 16 15 18 21 27 28 30 32 32 31 32 33 34 40 46 53 57 59 56 57 62 61 62 60 59 60 66 72 73 82 84 82 88 99 104 95 82 58 60 57
27 23 22 21 25 32 35 37 38 39 40 39 37 34 33 32 31 33 36 42 46 48 56 58 62 64 64 63 61 63 66 71 77 75 87 87 83 88 81 71 57 59 57
34 31 28 30 32 34 37 36 37 39 39 37 36 32 29 27 27 26 27 30 35 42 48 52 52 54 57 58 59 60 64 64 64 63 61 61 65 76 69 58 58 57 53
31 24 21 22 23 24 25 27 26 25 27 28 28 27 25 25 25 26 28 29 30 33 36 37 40 46 49 56 61 63 62 59 59 58 55 53 51 56 57 52 52 63 60
23 19 19 16 15 15 16 17 17 14 14 15 18 20 21 23 23 24 24 24 24 22 19 19 21 23 25 30 33 38 41 49 49 50 51 50 48 50 46 53 51 39 49
23 25 23 18 15 12 11 10 10 9 9 9 10 12 15 18 21 22 23 22 19 19 21 20 22 24 27 30 32 34 41 46 45 46 44 45 47 47 48 38 39 44 48
35 31 25 23 22 21 20 17 15 14 11 8 5 5 8 13 18 19 18 17 17 17 18 19 22 24 26 28 26 26 24 27 31 31 31 35 39 47 46 43 43 46 48
37 33 29 29 28 23 20 15 12 9 6 5 5 6 9 12 15 16 17 17 18 17 19 22 22 23 28 29 31 33 27 23 18 19 22 30 31 29 37 39 33 46 55
41 38 34 30 27 21 15 11 8 7 8 9 12 13 15 17 17 18 19 20 20 20 19 21 23 24 26 26 27 29 27 22 19 18 21 27 31 34 33 38 49 54 55
43 38 32 27 21 17 13 11 10 12 14 17 18 18 18 18 18 17 16 16 17 15 15 17 18 21 22 22 23 21 20 19 16 20 27 35 38 41 42 46 50 55 58
41 35 29 24 23 20 16 15 12 12 13 14 14 14 15 15 14 14 14 13 12 12 12 11 12 15 17 18 17 14 16 18 20 24 31 37 40 41 43 50 50 49 55
Wind_Direction_850mb
240 237 233 229 223 226 226 224 222 221 220 223 223 231 231 232 234 233 232 231 233 235 238 241 242 244 246 253 253 242 233 226 213 230 233 233 237 249 254 252 258 266 275
234 235 233 230 226 229 230 227 225 225 223 224 226 232 234 235 237 237 236 235 234 236 240 242 244 246 249 250 246 236 232 230 219 233 238 211 225 234 246 253 261 267 274
232 233 238 234 233 230 230 232 230 228 229 229 229 230 236 238 237 236 235 236 237 237 241 244 246 247 249 247 247 239 231 230 225 239 232 225 230 238 240 246 255 261 267
243 244 241 243 237 234 236 239 238 232 231 231 231 229 233 234 236 238 239 239 240 241 243 245 245 245 248 246 244 239 230 234 234 243 244 247 253 231 234 239 245 252 256
249 250 251 251 244 236 238 241 241 237 234 233 235 234 234 238 241 243 244 242 244 245 247 248 247 247 248 247 243 239 233 238 246 251 255 245 251 254 251 249 242 247 249
253 257 256 248 244 241 237 238 239 241 236 234 237 238 238 238 240 243 246 247 248 248 249 249 250 251 251 249 247 244 240 243 245 253 256 253 257 256 254 251 256 252 250
256 257 252 246 241 239 236 235 237 240 242 239 239 241 243 244 245 247 249 251 250 250 252 252 252 252 252 250 250 247 245 245 247 251 254 255 263 268 268 266 255 248 248
247 255 254 249 245 242 242 238 235 238 242 244 244 244 246 247 250 251 252 253 255 257 258 259 258 258 257 254 252 250 248 247 250 254 255 256 269 272 269 265 263 245 246
254 253 246 249 247 244 244 241 235 237 242 247 251 252 251 249 250 253 254 255 258 260 261 261 260 260 260 257 253 250 248 246 244 243 250 255 257 259 265 262 259 255 238
231 234 237 239 247 245 246 245 237 239 247 253 254 255 256 256 257 257 257 258 261 262 263 263 264 263 261 259 255 253 250 249 248 247 245 250 251 252 258 255 255 253 245
209 214 221 225 230 235 234 238 237 237 242 248 253 254 257 260 260 259 261 261 263 263 264 266 266 264 262 260 257 257 255 253 252 251 250 250 250 252 252 250 249 249 239
179 179 203 222 224 222 224 227 232 238 244 249 252 255 258 261 264 265 266 266 266 268 268 268 268 269 268 266 262 260 260 261 259 256 253 251 249 250 249 251 252 247 240
141 134 121 109 126 194 222 232 237 243 245 246 250 251 254 257 261 265 268 269 268 268 270 269 269 270 270 267 266 266 268 264 268 265 262 256 251 249 246 248 244 241 235
172 167 172 172 160 146 157 168 199 230 242 246 250 252 254 255 256 258 260 264 265 266 267 269 271 270 271 271 271 270 267 268 269 263 272 264 256 252 249 246 239 236 232
202 216 224 219 225 239 255 262 268 268 261 260 259 256 252 250 252 254 256 256 255 258 262 267 267 268 270 271 271 276 273 264 266 270 271 274 256 266 255 245 242 229 231
218 216 213 218 241 258 265 265 263 261 265 266 262 256 254 255 254 253 252 252 253 255 256 255 261 263 266 273 275 276 279 280 272 273 274 280 264 253 247 244 228 241 238
217 202 204 236 263 270 271 268 265 261 262 263 261 259 255 249 250 252 251 248 246 245 248 254 257 260 264 266 265 268 269 272 272 272 277 272 268 256 249 243 228 223 228
205 212 234 247 253 263 268 266 262 260 259 258 255 254 255 254 253 254 256 256 255 254 255 255 255 255 256 260 263 265 266 271 273 273 282 279 272 259 242 235 227 223 232
214 219 218 227 236 245 251 257 260 258 254 252 253 253 250 246 246 248 250 257 262 264 264 264 263 261 259 257 258 262 268 274 280 280 277 277 265 250 240 227 216 231 234
217 243 239 240 241 247 245 242 241 242 245 247 248 249 251 254 256 260 265 265 266 272 277 286 290 289 285 279 279 273 278 273 276 281 280 270 256 240 223 222 227 225 232
222 215 215 221 225 211 186 182 186 190 196 203 212 222 234 244 252 257 261 266 270 274 274 267 271 273 274 277 277 288 278 268 271 276 272 265 257 241 232 215 221 232 230
205 205 204 196 183 167 151 144 139 134 135 137 158 213 247 259 266 268 271 274 275 280 293 292 280 278 281 283 282 287 294 288 287 287 274 257 243 235 219 208 223 229 227
194 189 187 175 163 155 147 138 127 111 90 57 14 336 318 304 297 293 289 284 284 283 288 292 296 296 293 299 302 300 308 301 284 275 255 242 232 223 233 238 240 243 230
177 171 168 162 154 143 131 118 104 76 40 11 360 348 338 330 325 319 313 308 299 288 288 295 300 299 298 306 311 314 318 319 313 287 253 236 232 227 228 238 245 240 235
161 160 159 152 139 134 135 119 93 56 33 15 8 2 356 353 348 340 332 329 320 307 296 292 295 296 300 302 303 304 301 301 288 267 248 237 236 239 242 244 243 237 232
153 154 148 144 146 138 125 100 77 57 43 32 26 19 15 13 11 3 351 344 335 330 322 297 279 280 277 275 278 276 271 270 280 261 263 260 252 248 253 258 250 245 241